| time (UTC) | temp C | wind direction | speed KPH | gust KPH | rain 1hr cm | rain 24hr cm | rain mn cm | humidity % | barometer mb |
| 20260906022431 | 25 | 103 | 0.0 | 1.6 | 0.00 | 0.00 | 0.00 | 88 | 1012.4 |
| 20260906021926 | 25 | 111 | 3.2 | 3.2 | 0.00 | 0.00 | 0.00 | 92 | 1012.2 |
| 20260906021427 | 25 | 102 | 1.6 | 1.6 | 0.00 | 0.00 | 0.00 | 91 | 1012.2 |
| 20260906020926 | 25 | 100 | 0.0 | 1.6 | 0.00 | 0.00 | 0.00 | 90 | 1011.9 |
| 20260906020421 | 25 | 84 | 1.6 | 1.6 | 0.00 | 0.00 | 0.00 | 93 | 1012.0 |
| 20260906015915 | 25 | 50 | 1.6 | 1.6 | 0.00 | 0.00 | 0.00 | 94 | 1012.0 |
| 20260906015415 | 25 | 9 | 1.6 | 1.6 | 0.00 | 0.00 | 0.00 | 93 | 1011.9 |
| 20260906014915 | 25 | 9 | 0.0 | 0.0 | 0.00 | 0.00 | 0.00 | 92 | 1011.9 |
| 20260906014414 | 25 | 9 | 1.6 | 1.6 | 0.00 | 0.00 | 0.00 | 92 | 1012.0 |
| 20260906013911 | 25 | 8 | 0.0 | 0.0 | 0.00 | 0.00 | 0.00 | 91 | 1012.4 |
| 20260906013406 | 25 | 3 | 1.6 | 1.6 | 0.00 | 0.00 | 0.00 | 94 | 1012.1 |
| 20260906012902 | 25 | 304 | 1.6 | 1.6 | 0.00 | 0.00 | 0.00 | 94 | 1011.9 |
| 20260906012356 | 25 | 303 | 0.0 | 0.0 | 0.00 | 0.00 | 0.00 | 93 | 1011.9 |
| 20260906011856 | 25 | 303 | 0.0 | 3.2 | 0.00 | 0.00 | 0.00 | 92 | 1011.8 |
| 20260906011356 | 26 | 358 | 0.0 | 0.0 | 0.00 | 0.00 | 0.00 | 92 | 1011.6 |
| 20260906010852 | 26 | 358 | 0.0 | 0.0 | 0.00 | 0.00 | 0.00 | 92 | 1011.6 |
| 20260906010348 | 26 | 358 | 0.0 | 0.0 | 0.00 | 0.00 | 0.00 | 92 | 1011.5 |
| 20260906005843 | 26 | 358 | 0.0 | 0.0 | 0.00 | 0.00 | 0.00 | 92 | 1011.3 |
| 20260906005342 | 26 | 358 | 0.0 | 0.0 | 0.00 | 0.00 | 0.00 | 92 | 1011.3 |
| 20260906004841 | 26 | 358 | 0.0 | 0.0 | 0.00 | 0.00 | 0.00 | 91 | 1011.5 |
| 20260906004341 | 26 | 358 | 0.0 | 0.0 | 0.00 | 0.00 | 0.00 | 91 | 1011.4 |
| 20260906003837 | 26 | 358 | 0.0 | 0.0 | 0.00 | 0.00 | 0.00 | 91 | 1011.2 |
| 20260906003332 | 26 | 358 | 0.0 | 0.0 | 0.00 | 0.00 | 0.00 | 90 | 1011.4 |
| 20260906002827 | 26 | 358 | 0.0 | 0.0 | 0.00 | 0.00 | 0.00 | 88 | 1011.2 |
| 20260906002326 | 27 | 358 | 0.0 | 0.0 | 0.00 | 0.00 | 0.00 | 88 | 1011.4 |
| 20260906001823 | 27 | 358 | 0.0 | 0.0 | 0.00 | 0.00 | 0.00 | 88 | 1011.6 |
| 20260906001318 | 27 | 358 | 0.0 | 0.0 | 0.00 | 0.00 | 0.00 | 88 | 1011.9 |
| 20260906000813 | 27 | 358 | 0.0 | 0.0 | 0.00 | 0.00 | 0.00 | 86 | 1011.8 |
| 20260906000307 | 27 | 358 | 0.0 | 0.0 | 0.00 | 0.00 | 0.00 | 84 | 1011.9 |
| 20260905235802 | 28 | 358 | 0.0 | 0.0 | 0.00 | 0.00 | 0.00 | 81 | 1012.0 |
| 20260905235306 | 28 | 358 | 0.0 | 0.0 | 0.00 | 0.00 | 0.00 | 81 | 1012.1 |
| 20260905234758 | 28 | 358 | 0.0 | 0.0 | 0.00 | 0.00 | 0.00 | 81 | 1012.1 |
| 20260905234252 | 28 | 358 | 0.0 | 0.0 | 0.00 | 0.00 | 0.00 | 80 | 1011.9 |
| 20260905233748 | 28 | 358 | 0.0 | 0.0 | 0.00 | 0.00 | 0.00 | 80 | 1011.8 |
| 20260905233247 | 29 | 358 | 0.0 | 0.0 | 0.00 | 0.00 | 0.00 | 77 | 1011.8 |
| 20260905232747 | 29 | 358 | 0.0 | 0.0 | 0.00 | 0.00 | 0.00 | 77 | 1012.1 |
| 20260905232243 | 29 | 358 | 0.0 | 0.0 | 0.00 | 0.00 | 0.00 | 75 | 1012.0 |
| 20260905231739 | 29 | 358 | 0.0 | 0.0 | 0.00 | 0.00 | 0.00 | 75 | 1012.1 |
| 20260905231234 | 30 | 358 | 1.6 | 1.6 | 0.00 | 0.00 | 0.00 | 75 | 1012.3 |
| 20260905230730 | 30 | 358 | 0.0 | 0.0 | 0.00 | 0.00 | 0.00 | 68 | 1011.9 |
| 20260905230228 | 30 | 358 | 0.0 | 0.0 | 0.00 | 0.00 | 0.00 | 69 | 1011.9 |
| 20260905225727 | 30 | 358 | 0.0 | 0.0 | 0.00 | 0.00 | 0.00 | 65 | 1011.8 |
| 20260905225223 | 31 | 358 | 0.0 | 0.0 | 0.00 | 0.00 | 0.00 | 63 | 1011.7 |
| 20260905224722 | 31 | 358 | 0.0 | 0.0 | 0.00 | 0.00 | 0.00 | 60 | 1011.9 |
| 20260905224217 | 31 | 359 | 1.6 | 1.6 | 0.00 | 0.00 | 0.00 | 59 | 1011.9 |
| 20260905223713 | 31 | 358 | 0.0 | 1.6 | 0.00 | 0.00 | 0.00 | 59 | 1011.9 |
| 20260905223210 | 32 | 358 | 0.0 | 1.6 | 0.00 | 0.00 | 0.00 | 59 | 1011.8 |
| 20260905222706 | 32 | 358 | 0.0 | 0.0 | 0.00 | 0.00 | 0.00 | 58 | 1011.9 |
| 20260905222205 | 32 | 358 | 0.0 | 0.0 | 0.00 | 0.00 | 0.00 | 60 | 1012.0 |
| 20260905221700 | 32 | 358 | 0.0 | 0.0 | 0.00 | 0.00 | 0.00 | 59 | 1012.0 |
| 20260905221157 | 32 | 354 | 0.0 | 1.6 | 0.00 | 0.00 | 0.00 | 57 | 1011.9 |
| 20260905220653 | 33 | 353 | 1.6 | 3.2 | 0.00 | 0.00 | 0.00 | 53 | 1011.9 |
| 20260905220149 | 33 | 12 | 1.6 | 4.8 | 0.00 | 0.00 | 0.00 | 54 | 1011.7 |
| 20260905215648 | 33 | 10 | 4.8 | 4.8 | 0.00 | 0.00 | 0.00 | 52 | 1012.0 |
| 20260905215144 | 33 | 336 | 4.8 | 6.4 | 0.00 | 0.00 | 0.00 | 52 | 1011.9 |
| 20260905214640 | 33 | 292 | 4.8 | 6.4 | 0.00 | 0.00 | 0.00 | 51 | 1011.9 |
| 20260905214135 | 33 | 348 | 6.4 | 4.8 | 0.00 | 0.00 | 0.00 | 50 | 1011.5 |
| 20260905213630 | 33 | 330 | 6.4 | 9.7 | 0.00 | 0.00 | 0.00 | 49 | 1012.1 |
| 20260905213125 | 34 | 326 | 4.8 | 4.8 | 0.00 | 0.00 | 0.00 | 50 | 1011.7 |
| 20260905212620 | 34 | 321 | 3.2 | 6.4 | 0.00 | 0.00 | 0.00 | 49 | 1011.6 |
| 20260905212120 | 34 | 271 | 3.2 | 9.7 | 0.00 | 0.00 | 0.00 | 49 | 1011.8 |
| 20260905211615 | 34 | 333 | 3.2 | 3.2 | 0.00 | 0.00 | 0.00 | 50 | 1011.7 |
| 20260905211110 | 33 | 342 | 3.2 | 9.7 | 0.00 | 0.00 | 0.00 | 50 | 1012.1 |
| 20260905210608 | 35 | 338 | 4.8 | 6.4 | 0.00 | 0.00 | 0.00 | 47 | 1012.0 |
| 20260905210107 | 35 | 334 | 4.8 | 6.4 | 0.00 | 0.00 | 0.00 | 48 | 1011.8 |
| 20260905205606 | 35 | 295 | 4.8 | 4.8 | 0.00 | 0.00 | 0.00 | 49 | 1011.8 |
| 20260905205106 | 35 | 354 | 3.2 | 3.2 | 0.00 | 0.00 | 0.00 | 49 | 1011.8 |
| 20260905204600 | 34 | 296 | 1.6 | 4.8 | 0.00 | 0.00 | 0.00 | 49 | 1012.0 |
| 20260905204056 | 34 | 21 | 1.6 | 9.7 | 0.00 | 0.00 | 0.00 | 48 | 1011.9 |
| 20260905203555 | 34 | 334 | 6.4 | 6.4 | 0.00 | 0.00 | 0.00 | 47 | 1012.0 |
| 20260905203051 | 35 | 327 | 6.4 | 9.7 | 0.00 | 0.00 | 0.00 | 47 | 1012.1 |
| 20260905202546 | 34 | 325 | 3.2 | 4.8 | 0.00 | 0.00 | 0.00 | 48 | 1012.3 |
| 20260905202042 | 34 | 322 | 4.8 | 6.4 | 0.00 | 0.00 | 0.00 | 48 | 1012.3 |
| 20260905201537 | 34 | 324 | 3.2 | 9.7 | 0.00 | 0.00 | 0.00 | 46 | 1012.2 |
| 20260905201037 | 34 | 324 | 1.6 | 3.2 | 0.00 | 0.00 | 0.00 | 48 | 1012.7 |
| 20260905200532 | 34 | 319 | 4.8 | 9.7 | 0.00 | 0.00 | 0.00 | 46 | 1012.5 |
| 20260905200032 | 34 | 308 | 4.8 | 6.4 | 0.00 | 0.00 | 0.00 | 47 | 1012.5 |
| 20260905195526 | 35 | 327 | 3.2 | 6.4 | 0.00 | 0.00 | 0.00 | 47 | 1012.4 |
| 20260905195022 | 35 | 280 | 6.4 | 9.7 | 0.00 | 0.00 | 0.00 | 46 | 1012.6 |
| 20260905194521 | 34 | 105 | 1.6 | 3.2 | 0.00 | 0.00 | 0.00 | 46 | 1012.8 |
| 20260905194021 | 34 | 305 | 3.2 | 4.8 | 0.00 | 0.00 | 0.00 | 45 | 1012.8 |
| 20260905193521 | 34 | 307 | 6.4 | 9.7 | 0.00 | 0.00 | 0.00 | 47 | 1012.8 |
| 20260905193016 | 35 | 156 | 4.8 | 6.4 | 0.00 | 0.00 | 0.00 | 45 | 1012.7 |
| 20260905192512 | 34 | 260 | 3.2 | 3.2 | 0.00 | 0.00 | 0.00 | 48 | 1012.9 |
| 20260905192008 | 34 | 266 | 4.8 | 9.7 | 0.00 | 0.00 | 0.00 | 45 | 1013.0 |
| 20260905191507 | 34 | 157 | 0.0 | 4.8 | 0.00 | 0.00 | 0.00 | 46 | 1013.1 |
| 20260905191006 | 34 | 265 | 6.4 | 9.7 | 0.00 | 0.00 | 0.00 | 45 | 1012.9 |
| 20260905190504 | 34 | 266 | 3.2 | 4.8 | 0.00 | 0.00 | 0.00 | 45 | 1013.0 |
| 20260905190003 | 33 | 280 | 3.2 | 3.2 | 0.00 | 0.00 | 0.00 | 47 | 1013.0 |
| 20260905185458 | 34 | 223 | 3.2 | 12.9 | 0.00 | 0.00 | 0.00 | 46 | 1013.2 |
| 20260905184957 | 33 | 3 | 3.2 | 4.8 | 0.00 | 0.00 | 0.00 | 49 | 1013.3 |
| 20260905184452 | 33 | 301 | 4.8 | 4.8 | 0.00 | 0.00 | 0.00 | 47 | 1013.5 |
| 20260905183951 | 33 | 270 | 3.2 | 4.8 | 0.00 | 0.00 | 0.00 | 44 | 1013.2 |
| 20260905183450 | 33 | 228 | 4.8 | 9.7 | 0.00 | 0.00 | 0.00 | 47 | 1013.2 |
| 20260905182945 | 33 | 303 | 3.2 | 11.3 | 0.00 | 0.00 | 0.00 | 48 | 1013.5 |
| 20260905182445 | 33 | 289 | 3.2 | 4.8 | 0.00 | 0.00 | 0.00 | 46 | 1013.6 |
| 20260905181940 | 32 | 247 | 1.6 | 3.2 | 0.00 | 0.00 | 0.00 | 50 | 1013.5 |
| 20260905181435 | 32 | 175 | 4.8 | 9.7 | 0.00 | 0.00 | 0.00 | 47 | 1013.7 |
| 20260905180934 | 33 | 151 | 3.2 | 4.8 | 0.00 | 0.00 | 0.00 | 46 | 1013.7 |
| 20260905180429 | 32 | 197 | 1.6 | 3.2 | 0.00 | 0.00 | 0.00 | 47 | 1013.7 |
| 20260905175924 | 32 | 184 | 4.8 | 6.4 | 0.00 | 0.00 | 0.00 | 49 | 1013.8 |
| 20260905175423 | 32 | 278 | 3.2 | 4.8 | 0.00 | 0.00 | 0.00 | 51 | 1013.8 |
| 20260905174919 | 31 | 220 | 3.2 | 4.8 | 0.00 | 0.00 | 0.00 | 52 | 1014.0 |
| 20260905174414 | 31 | 251 | 1.6 | 4.8 | 0.00 | 0.00 | 0.00 | 56 | 1014.0 |
| 20260905173910 | 31 | 151 | 9.7 | 11.3 | 0.00 | 0.00 | 0.00 | 50 | 1014.1 |
| 20260905173407 | 31 | 158 | 9.7 | 11.3 | 0.00 | 0.00 | 0.00 | 53 | 1014.1 |
| 20260905172906 | 31 | 257 | 1.6 | 4.8 | 0.00 | 0.00 | 0.00 | 54 | 1013.9 |
| 20260905172404 | 31 | 178 | 3.2 | 6.4 | 0.00 | 0.00 | 0.00 | 53 | 1014.1 |
| 20260905171900 | 31 | 166 | 6.4 | 12.9 | 0.00 | 0.00 | 0.00 | 54 | 1014.1 |
| 20260905171357 | 31 | 146 | 1.6 | 3.2 | 0.00 | 0.00 | 0.00 | 53 | 1014.1 |
| 20260905170853 | 31 | 174 | 0.0 | 4.8 | 0.00 | 0.00 | 0.00 | 53 | 1014.2 |
| 20260905170349 | 31 | 167 | 4.8 | 9.7 | 0.00 | 0.00 | 0.00 | 52 | 1014.3 |
| 20260905165848 | 31 | 132 | 1.6 | 4.8 | 0.00 | 0.00 | 0.00 | 52 | 1014.5 |
| 20260905165344 | 31 | 171 | 3.2 | 6.4 | 0.00 | 0.00 | 0.00 | 52 | 1014.6 |
| 20260905164844 | 31 | 146 | 4.8 | 6.4 | 0.00 | 0.00 | 0.00 | 52 | 1014.4 |
| 20260905164339 | 30 | 169 | 8.0 | 9.7 | 0.00 | 0.00 | 0.00 | 55 | 1014.6 |
| 20260905163835 | 30 | 157 | 3.2 | 6.4 | 0.00 | 0.00 | 0.00 | 56 | 1014.4 |
| 20260905163331 | 30 | 149 | 4.8 | 6.4 | 0.00 | 0.00 | 0.00 | 57 | 1014.5 |
| 20260905162827 | 30 | 165 | 9.7 | 11.3 | 0.00 | 0.00 | 0.00 | 54 | 1014.6 |
| 20260905162327 | 30 | 168 | 3.2 | 6.4 | 0.00 | 0.00 | 0.00 | 60 | 1014.5 |
| 20260905161826 | 30 | 216 | 4.8 | 4.8 | 0.00 | 0.00 | 0.00 | 61 | 1014.3 |
| 20260905161326 | 30 | 157 | 6.4 | 11.3 | 0.00 | 0.00 | 0.00 | 57 | 1014.6 |
| 20260905160824 | 30 | 111 | 6.4 | 12.9 | 0.00 | 0.00 | 0.00 | 56 | 1014.5 |
| 20260905160319 | 30 | 166 | 12.9 | 14.5 | 0.00 | 0.00 | 0.00 | 56 | 1014.6 |
| 20260905155813 | 29 | 187 | 6.4 | 9.7 | 0.00 | 0.00 | 0.00 | 59 | 1014.7 |
| 20260905155312 | 29 | 140 | 9.7 | 11.3 | 0.00 | 0.00 | 0.00 | 57 | 1014.4 |
| 20260905154807 | 29 | 166 | 8.0 | 12.9 | 0.00 | 0.00 | 0.00 | 58 | 1014.7 |
| 20260905154302 | 29 | 146 | 6.4 | 12.9 | 0.00 | 0.00 | 0.00 | 58 | 1014.8 |
| 20260905153758 | 29 | 161 | 6.4 | 12.9 | 0.00 | 0.00 | 0.00 | 58 | 1014.9 |
| 20260905153254 | 29 | 177 | 1.6 | 11.3 | 0.00 | 0.00 | 0.00 | 60 | 1015.0 |
| 20260905152749 | 28 | 191 | 3.2 | 9.7 | 0.00 | 0.00 | 0.00 | 61 | 1015.1 |
| 20260905152248 | 28 | 182 | 6.4 | 6.4 | 0.00 | 0.00 | 0.00 | 61 | 1015.0 |
| 20260905151748 | 28 | 163 | 8.0 | 9.7 | 0.00 | 0.00 | 0.00 | 60 | 1015.6 |
| 20260905151244 | 28 | 166 | 8.0 | 11.3 | 0.00 | 0.00 | 0.00 | 62 | 1015.4 |
| 20260905150743 | 28 | 156 | 4.8 | 4.8 | 0.00 | 0.00 | 0.00 | 61 | 1015.3 |
| 20260905150243 | 28 | 147 | 3.2 | 11.3 | 0.00 | 0.00 | 0.00 | 60 | 1015.4 |
| 20260905145741 | 28 | 173 | 3.2 | 9.7 | 0.00 | 0.00 | 0.00 | 62 | 1015.3 |
| 20260905145236 | 28 | 87 | 3.2 | 9.7 | 0.00 | 0.00 | 0.00 | 61 | 1015.4 |
| 20260905144734 | 28 | 166 | 3.2 | 11.3 | 0.00 | 0.00 | 0.00 | 62 | 1015.1 |
| 20260905144230 | 27 | 122 | 4.8 | 6.4 | 0.00 | 0.00 | 0.00 | 65 | 1015.5 |
| 20260905143729 | 27 | 117 | 4.8 | 9.7 | 0.00 | 0.00 | 0.00 | 67 | 1015.3 |
| 20260905143229 | 26 | 175 | 3.2 | 3.2 | 0.00 | 0.00 | 0.00 | 70 | 1015.4 |
| 20260905142727 | 26 | 174 | 6.4 | 9.7 | 0.00 | 0.00 | 0.00 | 73 | 1015.5 |
| 20260905142222 | 25 | 174 | 3.2 | 4.8 | 0.00 | 0.00 | 0.00 | 77 | 1015.6 |
| 20260905141718 | 24 | 152 | 1.6 | 3.2 | 0.00 | 0.00 | 0.00 | 78 | 1015.7 |
| 20260905141214 | 25 | 114 | 4.8 | 9.7 | 0.00 | 0.00 | 0.00 | 78 | 1015.8 |
| 20260905140708 | 25 | 87 | 4.8 | 6.4 | 0.00 | 0.00 | 0.00 | 78 | 1015.6 |
| 20260905140203 | 25 | 182 | 8.0 | 9.7 | 0.00 | 0.00 | 0.00 | 79 | 1015.8 |
| 20260905135657 | 24 | 151 | 8.0 | 14.5 | 0.00 | 0.00 | 0.00 | 81 | 1015.7 |
| 20260905135154 | 23 | 119 | 3.2 | 6.4 | 0.00 | 0.00 | 0.00 | 82 | 1015.9 |
| 20260905134652 | 23 | 134 | 1.6 | 6.4 | 0.00 | 0.00 | 0.00 | 84 | 1015.7 |
| 20260905134152 | 23 | 141 | 6.4 | 11.3 | 0.00 | 0.00 | 0.00 | 84 | 1015.7 |
| 20260905133647 | 22 | 104 | 1.6 | 14.5 | 0.00 | 0.00 | 0.00 | 86 | 1015.7 |
| 20260905133147 | 22 | 102 | 3.2 | 6.4 | 0.00 | 0.00 | 0.00 | 86 | 1015.8 |
| 20260905132647 | 22 | 142 | 6.4 | 9.7 | 0.00 | 0.00 | 0.00 | 87 | 1015.8 |
| 20260905132142 | 22 | 135 | 3.2 | 4.8 | 0.00 | 0.00 | 0.00 | 87 | 1016.1 |
| 20260905131638 | 22 | 106 | 3.2 | 11.3 | 0.00 | 0.00 | 0.00 | 86 | 1016.0 |
| 20260905131137 | 22 | 71 | 4.8 | 6.4 | 0.00 | 0.00 | 0.00 | 85 | 1016.0 |
| 20260905130632 | 22 | 72 | 4.8 | 6.4 | 0.00 | 0.00 | 0.00 | 84 | 1015.9 |
| 20260905130127 | 22 | 38 | 4.8 | 6.4 | 0.00 | 0.00 | 0.00 | 83 | 1016.4 |
| 20260905125626 | 22 | 76 | 3.2 | 4.8 | 0.00 | 0.00 | 0.00 | 82 | 1016.3 |
| 20260905125122 | 22 | 146 | 9.7 | 14.5 | 0.00 | 0.00 | 0.00 | 81 | 1016.4 |
| 20260905124618 | 22 | 76 | 1.6 | 6.4 | 0.00 | 0.00 | 0.00 | 82 | 1016.2 |
| 20260905124114 | 22 | 53 | 3.2 | 6.4 | 0.00 | 0.00 | 0.00 | 82 | 1016.0 |
| 20260905123609 | 22 | 45 | 4.8 | 6.4 | 0.00 | 0.00 | 0.00 | 83 | 1016.1 |
| 20260905123107 | 23 | 29 | 4.8 | 6.4 | 0.00 | 0.00 | 0.00 | 82 | 1016.1 |
| 20260905122607 | 23 | 265 | 1.6 | 1.6 | 0.00 | 0.00 | 0.00 | 81 | 1015.1 |
| 20260905122106 | 23 | 0 | 0.0 | 4.8 | 0.00 | 0.00 | 0.00 | 81 | 1015.4 |
| 20260905121601 | 23 | 79 | 1.6 | 4.8 | 0.00 | 0.00 | 0.00 | 80 | 1015.5 |
| 20260905121056 | 23 | 96 | 4.8 | 4.8 | 0.00 | 0.00 | 0.00 | 80 | 1015.3 |
| 20260905120555 | 23 | 119 | 1.6 | 9.7 | 0.00 | 0.00 | 0.00 | 79 | 1015.1 |
| 20260905120051 | 23 | 46 | 3.2 | 6.4 | 0.00 | 0.00 | 0.00 | 79 | 1015.3 |
| 20260905115549 | 23 | 44 | 4.8 | 6.4 | 0.00 | 0.00 | 0.00 | 79 | 1015.5 |
| 20260905115044 | 23 | 131 | 4.8 | 9.7 | 0.00 | 0.00 | 0.00 | 80 | 1015.4 |
| 20260905114544 | 23 | 347 | 6.4 | 9.7 | 0.00 | 0.00 | 0.00 | 81 | 1015.3 |
| 20260905114043 | 22 | 108 | 1.6 | 6.4 | 0.00 | 0.00 | 0.00 | 82 | 1015.0 |
| 20260905113538 | 22 | 96 | 0.0 | 3.2 | 0.00 | 0.00 | 0.00 | 83 | 1015.0 |
| 20260905113033 | 23 | 342 | 6.4 | 9.7 | 0.00 | 0.00 | 0.00 | 82 | 1015.0 |
| 20260905112529 | 23 | 359 | 3.2 | 6.4 | 0.00 | 0.00 | 0.00 | 82 | 1014.8 |
| 20260905112024 | 23 | 77 | 4.8 | 12.9 | 0.00 | 0.00 | 0.00 | 81 | 1014.7 |
| 20260905111519 | 23 | 27 | 6.4 | 11.3 | 0.00 | 0.00 | 0.00 | 80 | 1014.8 |
| 20260905111018 | 23 | 1 | 3.2 | 22.5 | 0.00 | 0.00 | 0.00 | 79 | 1014.5 |
| 20260905110517 | 24 | 340 | 6.4 | 16.1 | 0.00 | 0.00 | 0.00 | 79 | 1014.4 |
| 20260905110013 | 24 | 16 | 4.8 | 9.7 | 0.00 | 0.00 | 0.00 | 82 | 1014.9 |
| 20260905105507 | 23 | 23 | 9.7 | 17.7 | 0.00 | 0.00 | 0.00 | 91 | 1014.4 |
| 20260905105007 | 23 | 220 | 0.0 | 1.6 | 0.00 | 0.00 | 0.00 | 93 | 1014.0 |
| 20260905104503 | 23 | 257 | 0.0 | 0.0 | 0.00 | 0.00 | 0.00 | 92 | 1013.8 |
| 20260905104002 | 23 | 252 | 1.6 | 1.6 | 0.00 | 0.00 | 0.00 | 93 | 1013.8 |
| 20260905103457 | 23 | 228 | 1.6 | 3.2 | 0.00 | 0.00 | 0.00 | 92 | 1013.6 |
| 20260905102954 | 23 | 245 | 1.6 | 1.6 | 0.00 | 0.00 | 0.00 | 91 | 1013.8 |
| 20260905102449 | 23 | 313 | 1.6 | 1.6 | 0.00 | 0.00 | 0.00 | 91 | 1013.8 |
| 20260905101945 | 23 | 317 | 3.2 | 6.4 | 0.00 | 0.00 | 0.00 | 97 | 1013.8 |
| 20260905101443 | 22 | 313 | 3.2 | 3.2 | 0.00 | 0.00 | 0.00 | 98 | 1014.1 |
| 20260905100943 | 22 | 314 | 3.2 | 4.8 | 0.00 | 0.00 | 0.00 | 98 | 1013.9 |
| 20260905100439 | 22 | 256 | 0.0 | 0.0 | 0.00 | 0.00 | 0.00 | 98 | 1013.6 |
| 20260905095938 | 22 | 255 | 0.0 | 0.0 | 0.00 | 0.00 | 0.00 | 98 | 1013.7 |
| 20260905095438 | 22 | 254 | 0.0 | 0.0 | 0.00 | 0.00 | 0.00 | 98 | 1013.7 |
| 20260905094933 | 22 | 254 | 0.0 | 0.0 | 0.00 | 0.00 | 0.00 | 98 | 1013.5 |
| 20260905094428 | 22 | 254 | 0.0 | 0.0 | 0.00 | 0.00 | 0.00 | 98 | 1013.6 |
| 20260905093927 | 22 | 241 | 0.0 | 0.0 | 0.00 | 0.00 | 0.00 | 98 | 1013.5 |
| 20260905093423 | 22 | 235 | 0.0 | 0.0 | 0.00 | 0.00 | 0.00 | 98 | 1013.6 |
| 20260905092918 | 22 | 235 | 0.0 | 1.6 | 0.00 | 0.00 | 0.00 | 98 | 1013.4 |
| 20260905092413 | 22 | 235 | 1.6 | 1.6 | 0.00 | 0.00 | 0.00 | 98 | 1013.3 |
| 20260905091909 | 22 | 263 | 1.6 | 1.6 | 0.00 | 0.00 | 0.00 | 98 | 1013.6 |
| 20260905091409 | 22 | 230 | 0.0 | 1.6 | 0.00 | 0.00 | 0.00 | 98 | 1013.3 |
| 20260905090908 | 22 | 232 | 0.0 | 0.0 | 0.00 | 0.00 | 0.00 | 98 | 1013.3 |
| 20260905090403 | 22 | 232 | 0.0 | 0.0 | 0.00 | 0.00 | 0.00 | 98 | 1013.3 |
| 20260905085903 | 22 | 232 | 0.0 | 0.0 | 0.00 | 0.00 | 0.00 | 98 | 1013.3 |
| 20260905085403 | 22 | 232 | 0.0 | 0.0 | 0.00 | 0.00 | 0.00 | 98 | 1013.2 |
| 20260905084859 | 22 | 232 | 0.0 | 0.0 | 0.00 | 0.00 | 0.00 | 98 | 1013.4 |
| 20260905084357 | 22 | 232 | 1.6 | 0.0 | 0.00 | 0.00 | 0.00 | 98 | 1013.4 |
| 20260905083853 | 22 | 232 | 0.0 | 0.0 | 0.00 | 0.00 | 0.00 | 98 | 1013.4 |
| 20260905083348 | 22 | 232 | 0.0 | 0.0 | 0.00 | 0.00 | 0.00 | 98 | 1013.2 |
| 20260905082843 | 22 | 232 | 0.0 | 0.0 | 0.00 | 0.00 | 0.00 | 98 | 1013.3 |
| 20260905082340 | 22 | 232 | 0.0 | 0.0 | 0.00 | 0.00 | 0.00 | 98 | 1013.3 |
| 20260905081835 | 22 | 232 | 0.0 | 0.0 | 0.00 | 0.00 | 0.00 | 98 | 1012.9 |
| 20260905081330 | 22 | 232 | 0.0 | 0.0 | 0.00 | 0.00 | 0.00 | 98 | 1013.1 |
| 20260905080829 | 22 | 232 | 0.0 | 0.0 | 0.00 | 0.00 | 0.00 | 98 | 1013.4 |
| 20260905080324 | 22 | 232 | 0.0 | 0.0 | 0.00 | 0.00 | 0.00 | 98 | 1013.1 |
| 20260905075822 | 22 | 232 | 0.0 | 0.0 | 0.00 | 0.00 | 0.00 | 98 | 1013.4 |
| 20260905075322 | 22 | 232 | 0.0 | 0.0 | 0.00 | 0.00 | 0.00 | 98 | 1013.1 |
| 20260905074821 | 22 | 232 | 0.0 | 0.0 | 0.00 | 0.00 | 0.00 | 98 | 1013.4 |
| 20260905074317 | 22 | 232 | 0.0 | 0.0 | 0.00 | 0.00 | 0.00 | 98 | 1013.2 |
| 20260905073812 | 22 | 232 | 0.0 | 0.0 | 0.00 | 0.00 | 0.00 | 98 | 1013.5 |
| 20260905073308 | 22 | 232 | 1.6 | 1.6 | 0.00 | 0.00 | 0.00 | 98 | 1013.6 |
| 20260905072808 | 22 | 232 | 0.0 | 0.0 | 0.00 | 0.00 | 0.00 | 98 | 1013.6 |
| 20260905072305 | 22 | 232 | 0.0 | 0.0 | 0.00 | 0.00 | 0.00 | 97 | 1013.5 |
| 20260905071759 | 22 | 232 | 0.0 | 0.0 | 0.00 | 0.00 | 0.00 | 97 | 1013.5 |
| 20260905071255 | 22 | 232 | 0.0 | 0.0 | 0.00 | 0.00 | 0.00 | 97 | 1013.6 |
| 20260905070749 | 22 | 232 | 0.0 | 0.0 | 0.00 | 0.00 | 0.00 | 97 | 1013.7 |
| 20260905070247 | 22 | 232 | 0.0 | 0.0 | 0.00 | 0.00 | 0.00 | 97 | 1013.9 |
| 20260905065745 | 22 | 232 | 0.0 | 0.0 | 0.00 | 0.00 | 0.00 | 97 | 1013.8 |
| 20260905065244 | 22 | 232 | 0.0 | 0.0 | 0.00 | 0.00 | 0.00 | 97 | 1013.8 |
| 20260905064739 | 22 | 232 | 0.0 | 0.0 | 0.00 | 0.00 | 0.00 | 97 | 1013.8 |
| 20260905064235 | 22 | 232 | 0.0 | 0.0 | 0.00 | 0.00 | 0.00 | 97 | 1013.9 |
| 20260905063733 | 23 | 232 | 0.0 | 0.0 | 0.00 | 0.00 | 0.00 | 97 | 1013.9 |
| 20260905063230 | 23 | 232 | 0.0 | 0.0 | 0.00 | 0.00 | 0.00 | 97 | 1014.2 |
| 20260905062726 | 23 | 232 | 0.0 | 0.0 | 0.00 | 0.00 | 0.00 | 97 | 1014.2 |
| 20260905062226 | 23 | 232 | 0.0 | 0.0 | 0.00 | 0.00 | 0.00 | 97 | 1014.1 |
| 20260905061725 | 23 | 232 | 0.0 | 1.6 | 0.00 | 0.00 | 0.00 | 97 | 1014.3 |
| 20260905061221 | 22 | 232 | 1.6 | 1.6 | 0.00 | 0.00 | 0.00 | 97 | 1014.4 |
| 20260905060720 | 22 | 232 | 0.0 | 0.0 | 0.00 | 0.00 | 0.00 | 96 | 1014.1 |
| 20260905060217 | 22 | 232 | 0.0 | 0.0 | 0.00 | 0.00 | 0.00 | 96 | 1014.4 |
| 20260905055715 | 22 | 232 | 0.0 | 0.0 | 0.00 | 0.00 | 0.00 | 96 | 1014.5 |
| 20260905055211 | 23 | 232 | 0.0 | 0.0 | 0.00 | 0.00 | 0.00 | 96 | 1014.7 |
| 20260905054706 | 23 | 232 | 0.0 | 0.0 | 0.00 | 0.00 | 0.00 | 96 | 1014.2 |
| 20260905054202 | 23 | 229 | 0.0 | 0.0 | 0.00 | 0.00 | 0.00 | 97 | 1014.5 |
| 20260905053701 | 23 | 229 | 1.6 | 1.6 | 0.00 | 0.00 | 0.00 | 97 | 1014.6 |
| 20260905053157 | 23 | 229 | 1.6 | 1.6 | 0.00 | 0.00 | 0.00 | 96 | 1014.5 |
| 20260905052656 | 23 | 230 | 1.6 | 1.6 | 0.00 | 0.00 | 0.00 | 96 | 1014.5 |
| 20260905052151 | 23 | 230 | 0.0 | 0.0 | 0.00 | 0.00 | 0.00 | 96 | 1014.6 |
| 20260905051646 | 23 | 230 | 0.0 | 0.0 | 0.00 | 0.00 | 0.00 | 96 | 1014.7 |
| 20260905051143 | 23 | 230 | 0.0 | 0.0 | 0.00 | 0.00 | 0.00 | 96 | 1014.9 |
| 20260905050639 | 23 | 230 | 0.0 | 0.0 | 0.00 | 0.00 | 0.00 | 96 | 1014.5 |
| 20260905050136 | 23 | 229 | 1.6 | 1.6 | 0.00 | 0.00 | 0.00 | 95 | 1014.6 |
| 20260905045635 | 23 | 229 | 1.6 | 1.6 | 0.00 | 0.00 | 0.00 | 95 | 1014.7 |
| 20260905045131 | 24 | 229 | 0.0 | 0.0 | 0.00 | 0.00 | 0.00 | 95 | 1014.6 |
| 20260905044630 | 24 | 229 | 0.0 | 0.0 | 0.00 | 0.00 | 0.00 | 95 | 1014.7 |
| 20260905044125 | 23 | 258 | 1.6 | 1.6 | 0.00 | 0.00 | 0.00 | 95 | 1014.6 |
| 20260905043624 | 23 | 296 | 0.0 | 0.0 | 0.00 | 0.00 | 0.00 | 95 | 1014.6 |
| 20260905043119 | 23 | 240 | 0.0 | 0.0 | 0.00 | 0.00 | 0.00 | 95 | 1014.5 |
| 20260905042618 | 23 | 239 | 0.0 | 0.0 | 0.00 | 0.00 | 0.00 | 95 | 1014.5 |
| 20260905042113 | 23 | 239 | 0.0 | 0.0 | 0.00 | 0.00 | 0.00 | 95 | 1014.7 |
| 20260905041609 | 23 | 239 | 0.0 | 0.0 | 0.00 | 0.00 | 0.00 | 95 | 1014.6 |
| 20260905041105 | 23 | 239 | 0.0 | 0.0 | 0.00 | 0.00 | 0.00 | 94 | 1014.7 |
| 20260905040604 | 24 | 239 | 0.0 | 1.6 | 0.00 | 0.00 | 0.00 | 94 | 1014.7 |
| 20260905035558 | 24 | 240 | 0.0 | 1.6 | 0.00 | 0.00 | 0.00 | 96 | 1014.7 |
| 20260905035055 | 24 | 240 | 0.0 | 0.0 | 0.00 | 0.00 | 0.00 | 95 | 1014.8 |
| 20260905034551 | 24 | 240 | 0.0 | 0.0 | 0.00 | 0.00 | 0.00 | 96 | 1014.8 |
| 20260905034045 | 24 | 240 | 0.0 | 0.0 | 0.00 | 0.00 | 0.00 | 95 | 1014.8 |
| 20260905033544 | 24 | 240 | 0.0 | 0.0 | 0.00 | 0.00 | 0.00 | 96 | 1014.7 |
| 20260905033041 | 24 | 240 | 0.0 | 0.0 | 0.00 | 0.00 | 0.00 | 96 | 1015.0 |
| 20260905032540 | 24 | 240 | 0.0 | 0.0 | 0.00 | 0.00 | 0.00 | 95 | 1014.9 |
| 20260905032035 | 24 | 240 | 0.0 | 0.0 | 0.00 | 0.00 | 0.00 | 96 | 1014.7 |
| 20260905031531 | 24 | 240 | 1.6 | 1.6 | 0.00 | 0.00 | 0.00 | 96 | 1014.9 |
| 20260905031031 | 24 | 240 | 0.0 | 0.0 | 0.00 | 0.00 | 0.00 | 96 | 1014.9 |
| 20260905030526 | 24 | 240 | 0.0 | 0.0 | 0.00 | 0.00 | 0.00 | 95 | 1014.9 |
| 20260905030026 | 24 | 240 | 0.0 | 0.0 | 0.00 | 0.00 | 0.00 | 95 | 1015.1 |
| 20260905025521 | 24 | 240 | 0.0 | 0.0 | 0.00 | 0.00 | 0.00 | 95 | 1014.7 |
| 20260905025018 | 24 | 240 | 0.0 | 0.0 | 0.00 | 0.00 | 0.00 | 95 | 1014.9 |
| 20260905024513 | 25 | 240 | 0.0 | 0.0 | 0.00 | 0.00 | 0.00 | 95 | 1014.8 |
| 20260905024008 | 24 | 240 | 0.0 | 0.0 | 0.00 | 0.00 | 0.00 | 94 | 1014.6 |
| 20260905023503 | 25 | 240 | 0.0 | 0.0 | 0.00 | 0.00 | 0.00 | 94 | 1014.6 |
| 20260905023002 | 25 | 240 | 0.0 | 0.0 | 0.00 | 0.00 | 0.00 | 94 | 1014.5 |